| time (UTC) | temp F | wind direction | speed MPH | gust MPH | rain 1hr in | rain 24hr in | rain mn in | humidity % | barometer mb |
| 20260509152705 | 54 | 111 | 1.0 | 4.0 | 0.00 | 0.00 | 0.00 | 92 | 1017.0 |
| 20260509152206 | 54 | 132 | 1.0 | 4.0 | 0.00 | 0.00 | 0.00 | 92 | 1017.0 |
| 20260509151205 | 53 | 133 | 1.0 | 3.0 | 0.00 | 0.00 | 0.00 | 92 | 1017.0 |
| 20260509150704 | 53 | 58 | 0.0 | 0.0 | 0.00 | 0.00 | 0.00 | 92 | 1017.0 |
| 20260509150204 | 53 | 279 | 0.0 | 0.0 | 0.00 | 0.00 | 0.00 | 92 | 1017.0 |
| 20260509145705 | 53 | 279 | 0.0 | 3.0 | 0.00 | 0.00 | 0.00 | 92 | 1017.0 |
| 20260509144704 | 52 | 279 | 1.0 | 3.0 | 0.00 | 0.00 | 0.00 | 92 | 1017.1 |
| 20260509143704 | 52 | 290 | 0.0 | 0.0 | 0.00 | 0.00 | 0.00 | 92 | 1017.0 |
| 20260509143204 | 52 | 296 | 0.0 | 0.0 | 0.00 | 0.00 | 0.00 | 92 | 1016.9 |
| 20260509142705 | 53 | 274 | 0.0 | 0.0 | 0.00 | 0.00 | 0.00 | 92 | 1016.8 |
| 20260509142204 | 53 | 279 | 0.0 | 0.0 | 0.00 | 0.00 | 0.00 | 92 | 1016.8 |
| 20260509141704 | 52 | 279 | 0.0 | 0.0 | 0.00 | 0.00 | 0.00 | 92 | 1016.7 |
| 20260509141204 | 52 | 278 | 0.0 | 0.0 | 0.00 | 0.00 | 0.00 | 92 | 1016.6 |
| 20260509140704 | 53 | 278 | 0.0 | 0.0 | 0.00 | 0.00 | 0.00 | 92 | 1016.6 |
| 20260509140205 | 53 | 278 | 0.0 | 0.0 | 0.00 | 0.00 | 0.00 | 92 | 1016.5 |
| 20260509135204 | 53 | 284 | 0.0 | 0.0 | 0.00 | 0.00 | 0.00 | 92 | 1016.5 |
| 20260509134205 | 53 | 267 | 0.0 | 2.0 | 0.00 | 0.00 | 0.00 | 92 | 1016.5 |
| 20260509133704 | 53 | 267 | 0.0 | 3.0 | 0.00 | 0.00 | 0.00 | 92 | 1016.4 |
| 20260509133204 | 53 | 267 | 0.0 | 4.0 | 0.00 | 0.00 | 0.00 | 91 | 1016.3 |
| 20260509132704 | 53 | 267 | 1.0 | 4.0 | 0.00 | 0.00 | 0.00 | 91 | 1016.3 |
| 20260509132205 | 53 | 267 | 2.0 | 3.0 | 0.00 | 0.00 | 0.00 | 91 | 1016.4 |
| 20260509131705 | 53 | 233 | 2.0 | 3.0 | 0.00 | 0.00 | 0.00 | 92 | 1016.3 |
| 20260509131205 | 53 | 267 | 2.0 | 3.0 | 0.00 | 0.00 | 0.00 | 92 | 1016.3 |
| 20260509130704 | 53 | 255 | 1.0 | 3.0 | 0.00 | 0.00 | 0.00 | 92 | 1016.3 |
| 20260509130206 | 53 | 295 | 1.0 | 3.0 | 0.00 | 0.00 | 0.00 | 91 | 1016.2 |
| 20260509125705 | 53 | 289 | 1.0 | 3.0 | 0.00 | 0.00 | 0.00 | 91 | 1016.2 |
| 20260509125205 | 53 | 289 | 1.0 | 3.0 | 0.00 | 0.00 | 0.00 | 91 | 1016.2 |
| 20260509124704 | 53 | 289 | 1.0 | 4.0 | 0.00 | 0.00 | 0.00 | 91 | 1016.3 |
| 20260509124205 | 53 | 289 | 2.0 | 5.0 | 0.00 | 0.00 | 0.00 | 91 | 1016.2 |
| 20260509123704 | 53 | 289 | 2.0 | 5.0 | 0.00 | 0.00 | 0.00 | 91 | 1016.2 |
| 20260509123205 | 53 | 288 | 2.0 | 4.0 | 0.00 | 0.00 | 0.00 | 91 | 1016.3 |
| 20260509122704 | 53 | 293 | 2.0 | 4.0 | 0.00 | 0.00 | 0.00 | 92 | 1016.3 |
| 20260509121704 | 53 | 277 | 2.0 | 5.0 | 0.00 | 0.00 | 0.00 | 91 | 1016.2 |
| 20260509121205 | 53 | 287 | 2.0 | 5.0 | 0.00 | 0.00 | 0.00 | 92 | 1016.2 |
| 20260509115705 | 53 | 296 | 0.0 | 4.0 | 0.00 | 0.00 | 0.00 | 92 | 1016.3 |
| 20260509114204 | 53 | 323 | 2.0 | 4.0 | 0.00 | 0.00 | 0.00 | 92 | 1016.3 |
| 20260509113704 | 53 | 309 | 1.0 | 4.0 | 0.00 | 0.00 | 0.00 | 92 | 1016.2 |
| 20260509113204 | 53 | 281 | 1.0 | 4.0 | 0.00 | 0.00 | 0.00 | 92 | 1016.3 |
| 20260509111204 | 53 | 317 | 0.0 | 0.0 | 0.00 | 0.00 | 0.00 | 92 | 1016.4 |
| 20260509110704 | 53 | 302 | 0.0 | 0.0 | 0.00 | 0.00 | 0.00 | 92 | 1016.4 |
| 20260509110205 | 53 | 126 | 0.0 | 0.0 | 0.00 | 0.00 | 0.00 | 92 | 1016.5 |
| 20260509105705 | 53 | 126 | 0.0 | 0.0 | 0.00 | 0.00 | 0.00 | 92 | 1016.5 |
| 20260509105205 | 53 | 126 | 0.0 | 0.0 | 0.00 | 0.00 | 0.00 | 91 | 1016.6 |
| 20260509104204 | 53 | 126 | 0.0 | 0.0 | 0.00 | 0.00 | 0.00 | 91 | 1016.5 |
| 20260509103705 | 52 | 126 | 0.0 | 0.0 | 0.00 | 0.00 | 0.00 | 91 | 1016.5 |
| 20260509102705 | 52 | 126 | 0.0 | 0.0 | 0.00 | 0.00 | 0.00 | 91 | 1016.5 |
| 20260509102204 | 52 | 126 | 0.0 | 0.0 | 0.00 | 0.00 | 0.00 | 91 | 1016.6 |
| 20260509101705 | 52 | 126 | 0.0 | 0.0 | 0.00 | 0.00 | 0.00 | 91 | 1016.5 |
| 20260509101204 | 52 | 126 | 0.0 | 0.0 | 0.00 | 0.00 | 0.00 | 91 | 1016.5 |
| 20260509100206 | 52 | 126 | 0.0 | 0.0 | 0.00 | 0.00 | 0.00 | 90 | 1016.7 |
| 20260509095205 | 52 | 126 | 0.0 | 0.0 | 0.00 | 0.00 | 0.00 | 91 | 1016.6 |
| 20260509094204 | 52 | 126 | 0.0 | 0.0 | 0.00 | 0.00 | 0.00 | 91 | 1016.7 |
| 20260509093704 | 52 | 126 | 0.0 | 0.0 | 0.00 | 0.00 | 0.00 | 90 | 1016.8 |
| 20260509093206 | 52 | 126 | 0.0 | 0.0 | 0.00 | 0.00 | 0.00 | 90 | 1016.9 |
| 20260509092705 | 53 | 126 | 0.0 | 0.0 | 0.00 | 0.00 | 0.00 | 91 | 1016.9 |
| 20260509092205 | 53 | 126 | 0.0 | 0.0 | 0.00 | 0.00 | 0.00 | 91 | 1016.9 |
| 20260509091705 | 53 | 126 | 0.0 | 0.0 | 0.00 | 0.00 | 0.00 | 91 | 1016.9 |
| 20260509091205 | 53 | 126 | 0.0 | 0.0 | 0.00 | 0.00 | 0.00 | 90 | 1016.9 |
| 20260509090705 | 53 | 126 | 0.0 | 0.0 | 0.00 | 0.00 | 0.00 | 90 | 1017.0 |
| 20260509090205 | 53 | 126 | 0.0 | 0.0 | 0.00 | 0.00 | 0.00 | 90 | 1017.1 |
| 20260509085706 | 53 | 126 | 0.0 | 0.0 | 0.00 | 0.00 | 0.00 | 90 | 1017.1 |
| 20260509084704 | 53 | 126 | 0.0 | 0.0 | 0.00 | 0.00 | 0.00 | 90 | 1017.1 |
| 20260509084204 | 53 | 126 | 0.0 | 0.0 | 0.00 | 0.00 | 0.00 | 90 | 1017.1 |
| 20260509083705 | 53 | 126 | 0.0 | 0.0 | 0.00 | 0.00 | 0.00 | 90 | 1017.1 |
| 20260509083204 | 53 | 126 | 0.0 | 0.0 | 0.00 | 0.00 | 0.00 | 90 | 1017.1 |
| 20260509082705 | 52 | 126 | 0.0 | 0.0 | 0.00 | 0.00 | 0.00 | 90 | 1017.1 |
| 20260509082204 | 52 | 126 | 0.0 | 0.0 | 0.00 | 0.00 | 0.00 | 89 | 1017.2 |
| 20260509081704 | 53 | 126 | 0.0 | 0.0 | 0.00 | 0.00 | 0.00 | 89 | 1017.3 |
| 20260509081205 | 53 | 126 | 0.0 | 0.0 | 0.00 | 0.00 | 0.00 | 89 | 1017.2 |
| 20260509080705 | 53 | 126 | 0.0 | 0.0 | 0.00 | 0.00 | 0.00 | 89 | 1017.3 |
| 20260509080205 | 53 | 126 | 0.0 | 0.0 | 0.00 | 0.00 | 0.00 | 89 | 1017.3 |
| 20260509075705 | 53 | 126 | 0.0 | 0.0 | 0.00 | 0.00 | 0.00 | 89 | 1017.2 |
| 20260509075205 | 53 | 126 | 0.0 | 0.0 | 0.00 | 0.00 | 0.00 | 89 | 1017.3 |
| 20260509074705 | 53 | 126 | 0.0 | 0.0 | 0.00 | 0.00 | 0.00 | 89 | 1017.3 |
| 20260509074205 | 53 | 126 | 0.0 | 0.0 | 0.00 | 0.00 | 0.00 | 89 | 1017.3 |
| 20260509073704 | 53 | 126 | 0.0 | 0.0 | 0.00 | 0.00 | 0.00 | 89 | 1017.2 |
| 20260509073204 | 53 | 126 | 0.0 | 0.0 | 0.00 | 0.00 | 0.00 | 88 | 1017.2 |
| 20260509072705 | 53 | 126 | 0.0 | 0.0 | 0.00 | 0.00 | 0.00 | 88 | 1017.4 |
| 20260509072205 | 54 | 126 | 0.0 | 0.0 | 0.00 | 0.00 | 0.00 | 88 | 1017.4 |
| 20260509071704 | 54 | 126 | 0.0 | 0.0 | 0.00 | 0.00 | 0.00 | 88 | 1017.3 |
| 20260509071204 | 54 | 126 | 0.0 | 0.0 | 0.00 | 0.00 | 0.00 | 88 | 1017.4 |
| 20260509070704 | 54 | 126 | 0.0 | 0.0 | 0.00 | 0.00 | 0.00 | 88 | 1017.4 |
| 20260509070205 | 54 | 126 | 0.0 | 0.0 | 0.00 | 0.00 | 0.00 | 88 | 1017.4 |
| 20260509065705 | 54 | 126 | 0.0 | 0.0 | 0.00 | 0.00 | 0.00 | 88 | 1017.5 |
| 20260509065205 | 54 | 126 | 0.0 | 0.0 | 0.00 | 0.00 | 0.00 | 88 | 1017.4 |
| 20260509064705 | 54 | 126 | 0.0 | 0.0 | 0.00 | 0.00 | 0.00 | 88 | 1017.4 |
| 20260509064205 | 55 | 126 | 0.0 | 0.0 | 0.00 | 0.00 | 0.00 | 88 | 1017.3 |
| 20260509063705 | 55 | 126 | 0.0 | 0.0 | 0.00 | 0.00 | 0.00 | 88 | 1017.4 |
| 20260509063204 | 55 | 126 | 0.0 | 0.0 | 0.00 | 0.00 | 0.00 | 88 | 1017.4 |
| 20260509062205 | 55 | 126 | 0.0 | 0.0 | 0.00 | 0.00 | 0.00 | 88 | 1017.5 |
| 20260509061705 | 55 | 126 | 0.0 | 0.0 | 0.00 | 0.00 | 0.00 | 88 | 1017.5 |
| 20260509061206 | 55 | 126 | 0.0 | 0.0 | 0.00 | 0.00 | 0.00 | 88 | 1017.4 |
| 20260509060704 | 55 | 126 | 0.0 | 0.0 | 0.00 | 0.00 | 0.00 | 87 | 1017.4 |
| 20260509055705 | 56 | 126 | 0.0 | 0.0 | 0.00 | 0.00 | 0.00 | 87 | 1017.5 |
| 20260509055205 | 56 | 126 | 0.0 | 0.0 | 0.00 | 0.00 | 0.00 | 87 | 1017.6 |
| 20260509054704 | 56 | 126 | 0.0 | 0.0 | 0.00 | 0.00 | 0.00 | 87 | 1017.7 |
| 20260509054206 | 56 | 126 | 0.0 | 0.0 | 0.00 | 0.00 | 0.00 | 87 | 1017.7 |
| 20260509053704 | 56 | 126 | 0.0 | 0.0 | 0.00 | 0.00 | 0.00 | 87 | 1017.7 |
| 20260509053205 | 56 | 126 | 0.0 | 0.0 | 0.00 | 0.00 | 0.00 | 87 | 1017.7 |
| 20260509052704 | 56 | 126 | 0.0 | 0.0 | 0.00 | 0.00 | 0.00 | 87 | 1017.7 |
| 20260509052204 | 56 | 126 | 0.0 | 0.0 | 0.00 | 0.00 | 0.00 | 87 | 1017.6 |
| 20260509051705 | 56 | 126 | 0.0 | 0.0 | 0.00 | 0.00 | 0.00 | 87 | 1017.7 |
| 20260509051205 | 56 | 126 | 0.0 | 0.0 | 0.00 | 0.00 | 0.00 | 87 | 1017.6 |
| 20260509050704 | 56 | 126 | 0.0 | 3.0 | 0.00 | 0.00 | 0.00 | 87 | 1017.7 |
| 20260509050204 | 56 | 126 | 0.0 | 3.0 | 0.00 | 0.00 | 0.00 | 87 | 1017.6 |
| 20260509045204 | 57 | 126 | 0.0 | 3.0 | 0.00 | 0.00 | 0.00 | 87 | 1017.5 |
| 20260509044705 | 57 | 55 | 0.0 | 6.0 | 0.00 | 0.00 | 0.00 | 87 | 1017.4 |
| 20260509044204 | 57 | 97 | 1.0 | 6.0 | 0.00 | 0.00 | 0.00 | 86 | 1017.5 |
| 20260509043704 | 57 | 105 | 2.0 | 6.0 | 0.00 | 0.00 | 0.00 | 86 | 1017.4 |
| 20260509043205 | 57 | 101 | 2.0 | 7.0 | 0.00 | 0.00 | 0.00 | 86 | 1017.4 |
| 20260509042205 | 57 | 128 | 3.0 | 8.0 | 0.00 | 0.00 | 0.00 | 86 | 1017.2 |
| 20260509040705 | 58 | 101 | 3.0 | 8.0 | 0.00 | 0.00 | 0.00 | 85 | 1017.0 |
| 20260509040205 | 58 | 121 | 2.0 | 8.0 | 0.00 | 0.00 | 0.00 | 85 | 1016.9 |
| 20260509035704 | 58 | 123 | 3.0 | 8.0 | 0.00 | 0.00 | 0.00 | 85 | 1016.8 |
| 20260509034704 | 58 | 109 | 3.0 | 8.0 | 0.00 | 0.00 | 0.00 | 84 | 1016.7 |
| 20260509034204 | 59 | 132 | 2.0 | 8.0 | 0.00 | 0.00 | 0.00 | 83 | 1016.7 |
| 20260509033705 | 59 | 140 | 2.0 | 8.0 | 0.00 | 0.00 | 0.00 | 83 | 1016.7 |
| 20260509033205 | 59 | 124 | 2.0 | 8.0 | 0.00 | 0.00 | 0.00 | 83 | 1016.7 |
| 20260509032705 | 59 | 179 | 2.0 | 6.0 | 0.00 | 0.00 | 0.00 | 82 | 1016.6 |
| 20260509032204 | 60 | 154 | 2.0 | 8.0 | 0.00 | 0.00 | 0.00 | 81 | 1016.4 |
| 20260509030704 | 61 | 122 | 2.0 | 6.0 | 0.00 | 0.00 | 0.00 | 79 | 1016.4 |
| 20260509030205 | 62 | 184 | 1.0 | 6.0 | 0.00 | 0.00 | 0.00 | 78 | 1016.4 |
| 20260509025204 | 62 | 136 | 1.0 | 5.0 | 0.00 | 0.00 | 0.00 | 77 | 1016.3 |
| 20260509024204 | 62 | 121 | 1.0 | 5.0 | 0.00 | 0.00 | 0.00 | 77 | 1016.2 |
| 20260509023705 | 62 | 110 | 2.0 | 6.0 | 0.00 | 0.00 | 0.00 | 76 | 1016.2 |
| 20260509023205 | 63 | 111 | 2.0 | 6.0 | 0.00 | 0.00 | 0.00 | 76 | 1016.2 |
| 20260509022704 | 63 | 111 | 1.0 | 6.0 | 0.00 | 0.00 | 0.00 | 76 | 1016.2 |
| 20260509022204 | 63 | 132 | 2.0 | 6.0 | 0.00 | 0.00 | 0.00 | 75 | 1016.2 |
| 20260509021205 | 64 | 82 | 2.0 | 6.0 | 0.00 | 0.00 | 0.00 | 74 | 1016.1 |
| 20260509020704 | 64 | 138 | 2.0 | 5.0 | 0.00 | 0.00 | 0.00 | 73 | 1016.1 |
| 20260509020204 | 64 | 146 | 3.0 | 5.0 | 0.00 | 0.00 | 0.00 | 73 | 1016.1 |
| 20260509014704 | 65 | 109 | 4.0 | 8.0 | 0.00 | 0.00 | 0.00 | 71 | 1016.1 |
| 20260509013704 | 66 | 78 | 3.0 | 9.0 | 0.00 | 0.00 | 0.00 | 70 | 1016.1 |
| 20260509013205 | 66 | 109 | 3.0 | 9.0 | 0.00 | 0.00 | 0.00 | 71 | 1016.1 |
| 20260509012704 | 66 | 94 | 2.0 | 5.0 | 0.00 | 0.00 | 0.00 | 70 | 1016.0 |
| 20260509012205 | 66 | 111 | 1.0 | 6.0 | 0.00 | 0.00 | 0.00 | 71 | 1016.1 |
| 20260509011705 | 65 | 122 | 2.0 | 6.0 | 0.00 | 0.00 | 0.00 | 73 | 1016.0 |
| 20260509011205 | 65 | 123 | 3.0 | 7.0 | 0.00 | 0.00 | 0.00 | 73 | 1016.0 |
| 20260509010704 | 65 | 103 | 3.0 | 7.0 | 0.00 | 0.00 | 0.00 | 72 | 1016.1 |
| 20260509010204 | 65 | 134 | 3.0 | 9.0 | 0.00 | 0.00 | 0.00 | 72 | 1016.0 |
| 20260509005204 | 66 | 126 | 4.0 | 9.0 | 0.00 | 0.00 | 0.00 | 70 | 1016.1 |
| 20260509004204 | 67 | 136 | 3.0 | 7.0 | 0.00 | 0.00 | 0.00 | 69 | 1016.1 |
| 20260509002704 | 67 | 119 | 2.0 | 7.0 | 0.00 | 0.00 | 0.00 | 68 | 1016.3 |
| 20260509001704 | 67 | 116 | 3.0 | 8.0 | 0.00 | 0.00 | 0.00 | 69 | 1016.4 |
| 20260509001204 | 67 | 107 | 4.0 | 8.0 | 0.00 | 0.00 | 0.00 | 69 | 1016.4 |
| 20260509000704 | 68 | 130 | 3.0 | 7.0 | 0.00 | 0.00 | 0.00 | 68 | 1016.3 |
| 20260509000205 | 68 | 111 | 2.0 | 8.0 | 0.00 | 0.00 | 0.00 | 69 | 1016.5 |
| 20260508235204 | 67 | 146 | 4.0 | 10.0 | 0.00 | 0.00 | 0.00 | 69 | 1016.5 |
| 20260508234704 | 67 | 94 | 5.0 | 10.0 | 0.00 | 0.00 | 0.00 | 68 | 1016.5 |
| 20260508234204 | 68 | 106 | 4.0 | 8.0 | 0.00 | 0.00 | 0.00 | 66 | 1016.5 |
| 20260508233705 | 68 | 115 | 3.0 | 9.0 | 0.00 | 0.00 | 0.00 | 67 | 1016.5 |
| 20260508233204 | 68 | 107 | 3.0 | 9.0 | 0.00 | 0.00 | 0.00 | 67 | 1016.5 |
| 20260508232204 | 69 | 127 | 5.0 | 9.0 | 0.00 | 0.00 | 0.00 | 66 | 1016.6 |
| 20260508231704 | 69 | 117 | 5.0 | 9.0 | 0.00 | 0.00 | 0.00 | 65 | 1016.7 |
| 20260508231205 | 69 | 104 | 4.0 | 8.0 | 0.00 | 0.00 | 0.00 | 64 | 1016.7 |
| 20260508230704 | 70 | 139 | 3.0 | 8.0 | 0.00 | 0.00 | 0.00 | 63 | 1016.8 |
| 20260508225705 | 70 | 118 | 3.0 | 8.0 | 0.00 | 0.00 | 0.00 | 64 | 1016.9 |
| 20260508225205 | 70 | 125 | 3.0 | 8.0 | 0.00 | 0.00 | 0.00 | 63 | 1016.9 |
| 20260508224705 | 70 | 123 | 3.0 | 8.0 | 0.00 | 0.00 | 0.00 | 65 | 1017.0 |
| 20260508224204 | 69 | 105 | 3.0 | 8.0 | 0.00 | 0.00 | 0.00 | 66 | 1017.1 |
| 20260508223204 | 68 | 97 | 4.0 | 7.0 | 0.00 | 0.00 | 0.00 | 69 | 1017.3 |
| 20260508222705 | 67 | 117 | 3.0 | 8.0 | 0.00 | 0.00 | 0.00 | 69 | 1017.2 |
| 20260508222204 | 67 | 93 | 3.0 | 9.0 | 0.00 | 0.00 | 0.00 | 69 | 1017.3 |
| 20260508221706 | 67 | 129 | 5.0 | 10.0 | 0.00 | 0.00 | 0.00 | 70 | 1017.4 |
| 20260508221204 | 67 | 124 | 5.0 | 10.0 | 0.00 | 0.00 | 0.00 | 71 | 1017.4 |
| 20260508220205 | 67 | 104 | 6.0 | 10.0 | 0.00 | 0.00 | 0.00 | 70 | 1017.5 |
| 20260508215704 | 67 | 98 | 6.0 | 10.0 | 0.00 | 0.00 | 0.00 | 68 | 1017.7 |
| 20260508214704 | 68 | 100 | 4.0 | 10.0 | 0.00 | 0.00 | 0.00 | 68 | 1017.7 |
| 20260508213705 | 68 | 128 | 4.0 | 9.0 | 0.00 | 0.00 | 0.00 | 67 | 1017.9 |
| 20260508213204 | 68 | 115 | 4.0 | 9.0 | 0.00 | 0.00 | 0.00 | 66 | 1018.0 |
| 20260508212705 | 68 | 121 | 4.0 | 9.0 | 0.00 | 0.00 | 0.00 | 66 | 1018.0 |
| 20260508212206 | 68 | 103 | 4.0 | 8.0 | 0.00 | 0.00 | 0.00 | 66 | 1018.0 |
| 20260508211204 | 68 | 121 | 3.0 | 8.0 | 0.00 | 0.00 | 0.00 | 66 | 1018.2 |
| 20260508210704 | 69 | 102 | 3.0 | 10.0 | 0.00 | 0.00 | 0.00 | 65 | 1018.3 |
| 20260508205704 | 68 | 112 | 4.0 | 10.0 | 0.00 | 0.00 | 0.00 | 66 | 1018.4 |
| 20260508204705 | 68 | 207 | 3.0 | 9.0 | 0.00 | 0.00 | 0.00 | 67 | 1018.4 |
| 20260508204204 | 67 | 177 | 3.0 | 9.0 | 0.00 | 0.00 | 0.00 | 67 | 1018.4 |
| 20260508203705 | 67 | 139 | 3.0 | 9.0 | 0.00 | 0.00 | 0.00 | 68 | 1018.6 |
| 20260508203204 | 66 | 155 | 4.0 | 9.0 | 0.00 | 0.00 | 0.00 | 68 | 1018.6 |
| 20260508202704 | 66 | 223 | 3.0 | 11.0 | 0.00 | 0.00 | 0.00 | 68 | 1018.6 |
| 20260508202205 | 66 | 200 | 4.0 | 11.0 | 0.00 | 0.00 | 0.00 | 68 | 1018.7 |
| 20260508201705 | 66 | 165 | 5.0 | 9.0 | 0.00 | 0.00 | 0.00 | 68 | 1018.6 |
| 20260508201204 | 67 | 123 | 4.0 | 9.0 | 0.00 | 0.00 | 0.00 | 67 | 1018.6 |
| 20260508200704 | 66 | 173 | 4.0 | 9.0 | 0.00 | 0.00 | 0.00 | 68 | 1018.7 |
| 20260508200204 | 66 | 176 | 4.0 | 9.0 | 0.00 | 0.00 | 0.00 | 68 | 1018.7 |
| 20260508195704 | 66 | 112 | 4.0 | 9.0 | 0.00 | 0.00 | 0.00 | 70 | 1018.8 |
| 20260508195204 | 65 | 102 | 4.0 | 9.0 | 0.00 | 0.00 | 0.00 | 70 | 1018.7 |
| 20260508194704 | 65 | 138 | 3.0 | 9.0 | 0.00 | 0.00 | 0.00 | 71 | 1018.8 |
| 20260508193705 | 65 | 121 | 3.0 | 9.0 | 0.00 | 0.00 | 0.00 | 71 | 1018.9 |
| 20260508193204 | 65 | 135 | 3.0 | 7.0 | 0.00 | 0.00 | 0.00 | 72 | 1018.9 |
| 20260508192705 | 64 | 221 | 2.0 | 7.0 | 0.00 | 0.00 | 0.00 | 72 | 1019.0 |
| 20260508192204 | 63 | 205 | 2.0 | 8.0 | 0.00 | 0.00 | 0.00 | 74 | 1019.1 |
| 20260508191704 | 62 | 190 | 3.0 | 8.0 | 0.00 | 0.00 | 0.00 | 74 | 1019.2 |
| 20260508191204 | 62 | 215 | 4.0 | 8.0 | 0.00 | 0.00 | 0.00 | 74 | 1019.3 |
| 20260508190704 | 62 | 207 | 4.0 | 10.0 | 0.00 | 0.00 | 0.00 | 75 | 1019.4 |
| 20260508185706 | 61 | 227 | 5.0 | 12.0 | 0.00 | 0.00 | 0.00 | 76 | 1019.4 |
| 20260508185204 | 61 | 207 | 5.0 | 13.0 | 0.00 | 0.00 | 0.00 | 76 | 1019.5 |
| 20260508184705 | 61 | 217 | 5.0 | 13.0 | 0.00 | 0.00 | 0.00 | 77 | 1019.5 |
| 20260508184204 | 60 | 266 | 5.0 | 13.0 | 0.00 | 0.00 | 0.00 | 77 | 1019.5 |
| 20260508183704 | 60 | 207 | 5.0 | 12.0 | 0.00 | 0.00 | 0.00 | 76 | 1019.6 |
| 20260508183205 | 60 | 283 | 6.0 | 12.0 | 0.00 | 0.00 | 0.00 | 76 | 1019.5 |
| 20260508182704 | 60 | 253 | 5.0 | 12.0 | 0.00 | 0.00 | 0.00 | 76 | 1019.7 |
| 20260508182206 | 61 | 235 | 4.0 | 10.0 | 0.00 | 0.00 | 0.00 | 77 | 1019.7 |
| 20260508181704 | 60 | 236 | 5.0 | 9.0 | 0.00 | 0.00 | 0.00 | 77 | 1019.8 |
| 20260508181205 | 60 | 248 | 5.0 | 10.0 | 0.00 | 0.00 | 0.00 | 78 | 1019.7 |
| 20260508180205 | 59 | 194 | 5.0 | 10.0 | 0.00 | 0.00 | 0.00 | 79 | 1019.9 |
| 20260508175706 | 59 | 224 | 5.0 | 9.0 | 0.00 | 0.00 | 0.00 | 79 | 1019.9 |
| 20260508175204 | 59 | 188 | 4.0 | 9.0 | 0.00 | 0.00 | 0.00 | 80 | 1019.7 |
| 20260508174706 | 59 | 217 | 5.0 | 9.0 | 0.00 | 0.00 | 0.00 | 80 | 1019.8 |
| 20260508174204 | 58 | 202 | 5.0 | 9.0 | 0.00 | 0.00 | 0.00 | 80 | 1019.9 |
| 20260508173704 | 58 | 211 | 4.0 | 8.0 | 0.00 | 0.00 | 0.00 | 79 | 1019.9 |
| 20260508173204 | 59 | 180 | 4.0 | 8.0 | 0.00 | 0.00 | 0.00 | 79 | 1019.9 |
| 20260508172704 | 59 | 217 | 4.0 | 8.0 | 0.00 | 0.00 | 0.00 | 78 | 1019.8 |
| 20260508172205 | 60 | 192 | 3.0 | 7.0 | 0.00 | 0.00 | 0.00 | 78 | 1019.7 |
| 20260508171704 | 60 | 221 | 3.0 | 7.0 | 0.00 | 0.00 | 0.00 | 79 | 1019.7 |
| 20260508171204 | 60 | 165 | 3.0 | 7.0 | 0.00 | 0.00 | 0.00 | 79 | 1019.7 |
| 20260508170704 | 60 | 178 | 2.0 | 5.0 | 0.00 | 0.00 | 0.00 | 81 | 1019.6 |
| 20260508170204 | 60 | 130 | 2.0 | 7.0 | 0.00 | 0.00 | 0.00 | 82 | 1019.7 |
| 20260508165704 | 59 | 101 | 2.0 | 7.0 | 0.00 | 0.00 | 0.00 | 84 | 1019.7 |
| 20260508165204 | 58 | 54 | 2.0 | 7.0 | 0.00 | 0.00 | 0.00 | 85 | 1019.7 |
| 20260508164704 | 57 | 50 | 2.0 | 7.0 | 0.00 | 0.00 | 0.00 | 84 | 1019.7 |
| 20260508164206 | 57 | 99 | 2.0 | 5.0 | 0.00 | 0.00 | 0.00 | 85 | 1019.7 |
| 20260508163704 | 57 | 45 | 1.0 | 3.0 | 0.00 | 0.00 | 0.00 | 85 | 1019.8 |
| 20260508163205 | 56 | 106 | 1.0 | 3.0 | 0.00 | 0.00 | 0.00 | 86 | 1019.8 |
| 20260508162704 | 56 | 76 | 0.0 | 3.0 | 0.00 | 0.00 | 0.00 | 86 | 1019.7 |
| 20260508162204 | 56 | 355 | 1.0 | 3.0 | 0.00 | 0.00 | 0.00 | 86 | 1019.8 |
| 20260508161705 | 56 | 5 | 0.0 | 2.0 | 0.00 | 0.00 | 0.00 | 86 | 1019.8 |
| 20260508161204 | 55 | 12 | 0.0 | 3.0 | 0.00 | 0.00 | 0.00 | 87 | 1020.0 |
| 20260508160704 | 55 | 35 | 0.0 | 3.0 | 0.00 | 0.00 | 0.00 | 87 | 1020.0 |
| 20260508160205 | 55 | 35 | 1.0 | 3.0 | 0.00 | 0.00 | 0.00 | 87 | 1020.0 |
| 20260508155704 | 55 | 44 | 1.0 | 3.0 | 0.00 | 0.00 | 0.00 | 87 | 1019.8 |
| 20260508155204 | 55 | 338 | 0.0 | 4.0 | 0.00 | 0.00 | 0.00 | 87 | 1019.8 |
| 20260508154705 | 55 | 25 | 0.0 | 4.0 | 0.00 | 0.00 | 0.00 | 87 | 1019.8 |
| 20260508154204 | 55 | 81 | 1.0 | 3.0 | 0.00 | 0.00 | 0.00 | 87 | 1019.8 |
| 20260508153205 | 54 | 328 | 1.0 | 4.0 | 0.00 | 0.00 | 0.00 | 87 | 1019.7 |